Location: La Silve
(44.2414°N, 5.8889°E)
Time: 16:45:56
(UTC+00:00)

USA 281 - Pass Details

Date: 01 December 2020
Orbit: 1074 x 1084 km, 106.0° (Epoch: 08 January)

Event Time Altitude Azimuth Distance (km) Brightness Sun altitude
Rises 19:03:13 0° 172° (S) 3,868 6.1 -32.3°
Reaches altitude 10° 19:05:50 10° 178° (S) 2,915 5.4 -32.8°
Maximum altitude 19:12:06 48° 252° (WSW) 1,387 4.0 -33.9°
Drops below altitude 10° 19:18:26 10° 325° (NW) 2,926 5.8 -35.1°
Sets 19:21:04 0° 332° (NNW) 3,884 6.5 -35.5°
